• In Uzbekistan
  • List of Countries
  • For 7 days
  • Water Temperature
  • Satellite Maps
  • Weather Map
  • Weather Widgets
  • user-avatar
    Login

    Hourly Weather Mérida

    Today, 26 June, Wednesday

    Time Temperature Precipitation Wind Pressure Humidity
    00:00 +14°C° 0 mm 2 mps 593 mmHg 72%
    01:00 +14°C° 0 mm 2 mps 593 mmHg 71%
    02:00 +14°C° 0 mm 2 mps 593 mmHg 75%
    03:00 +14°C° 0 mm 2 mps 592 mmHg 79%
    04:00 +13°C° 0 mm 3 mps 592 mmHg 82%
    05:00 +14°C° 0 mm 3 mps 593 mmHg 79%
    06:00 +16°C° 0 mm 2 mps 594 mmHg 76%
    07:00 +17°C° 0 mm 2 mps 595 mmHg 72%
    08:00 +18°C° 0 mm 2 mps 596 mmHg 66%
    09:00 +20°C° 0 mm 2 mps 596 mmHg 59%
    10:00 +21°C° 0 mm 2 mps 597 mmHg 52%
    11:00 +22°C° 0.1 mm 3 mps 597 mmHg 52%
    12:00 +22°C° 0.1 mm 3 mps 596 mmHg 53%
    13:00 +22°C° 0.1 mm 3 mps 596 mmHg 53%
    14:00 +22°C° 0.2 mm 3 mps 595 mmHg 56%
    15:00 +21°C° 0.2 mm 2 mps 594 mmHg 58%
    16:00 +20°C° 0.2 mm 2 mps 593 mmHg 60%
    17:00 +18°C° 0.1 mm 2 mps 593 mmHg 67%
    18:00 +16°C° 0.1 mm 2 mps 592 mmHg 74%
    19:00 +14°C° 0.1 mm 2 mps 591 mmHg 81%
    20:00 +14°C° 0 mm 2 mps 592 mmHg 72%
    21:00 +12°C° 0 mm 3 mps 592 mmHg 64%
    22:00 +12°C° 0 mm 3 mps 592 mmHg 55%
    23:00 +12°C° 0 mm 3 mps 592 mmHg 55%

    Tomorrow, 27 June, Thursday

    Time Temperature Precipitation Wind Pressure Humidity
    00:00 +12°C° 0 mm 3 mps 592 mmHg 54%
    01:00 +12°C° 0 mm 3 mps 591 mmHg 54%
    02:00 +11°C° 0 mm 3 mps 591 mmHg 57%
    03:00 +11°C° 0 mm 3 mps 591 mmHg 59%
    04:00 +11°C° 0 mm 3 mps 591 mmHg 61%
    05:00 +12°C° 0 mm 3 mps 592 mmHg 60%
    06:00 +13°C° 0 mm 3 mps 593 mmHg 59%
    07:00 +16°C° 0 mm 2 mps 594 mmHg 58%
    08:00 +17°C° 0 mm 2 mps 594 mmHg 55%
    09:00 +19°C° 0 mm 2 mps 595 mmHg 51%
    10:00 +21°C° 0 mm 2 mps 596 mmHg 48%
    11:00 +21°C° 0 mm 2 mps 596 mmHg 49%
    12:00 +23°C° 0 mm 2 mps 595 mmHg 51%
    13:00 +23°C° 0 mm 2 mps 595 mmHg 52%
    14:00 +23°C° 0.1 mm 2 mps 594 mmHg 60%
    15:00 +21°C° 0.1 mm 2 mps 594 mmHg 67%
    16:00 +20°C° 0.1 mm 2 mps 593 mmHg 74%
    17:00 +19°C° 0.1 mm 1 mps 592 mmHg 81%
    18:00 +18°C° 0.1 mm 1 mps 592 mmHg 88%
    19:00 +15°C° 0.1 mm 1 mps 591 mmHg 95%
    20:00 +15°C° 0 mm 1 mps 592 mmHg 91%
    21:00 +14°C° 0 mm 1 mps 592 mmHg 87%
    22:00 +14°C° 0 mm 2 mps 592 mmHg 82%
    23:00 +13°C° 0 mm 2 mps 592 mmHg 74%

    Day after tomorrow, 28 June, Friday

    Time Temperature Precipitation Wind Pressure Humidity
    00:00 +13°C° 0 mm 2 mps 592 mmHg 66%
    01:00 +12°C° 0 mm 2 mps 591 mmHg 58%
    02:00 +12°C° 0 mm 2 mps 591 mmHg 57%
    03:00 +11°C° 0 mm 3 mps 591 mmHg 57%
    04:00 +11°C° 0 mm 3 mps 591 mmHg 56%
    05:00 +14°C° 0 mm 2 mps 592 mmHg 58%
    06:00 +15°C° 0 mm 2 mps 593 mmHg 60%
    07:00 +17°C° 0 mm 2 mps 594 mmHg 62%
    08:00 +18°C° 0 mm 2 mps 595 mmHg 60%
    09:00 +20°C° 0 mm 2 mps 596 mmHg 59%
    10:00 +23°C° 0 mm 2 mps 597 mmHg 57%
    11:00 +23°C° 0.1 mm 2 mps 596 mmHg 59%
    12:00 +23°C° 0.1 mm 2 mps 596 mmHg 61%
    13:00 +23°C° 0.1 mm 2 mps 595 mmHg 63%
    14:00 +23°C° 0.3 mm 2 mps 595 mmHg 68%
    15:00 +21°C° 0.3 mm 2 mps 594 mmHg 72%
    16:00 +20°C° 0.3 mm 2 mps 593 mmHg 77%
    17:00 +19°C° 0.3 mm 2 mps 593 mmHg 83%
    18:00 +18°C° 0.3 mm 1 mps 592 mmHg 89%
    19:00 +16°C° 0.3 mm 1 mps 592 mmHg 95%
    20:00 +16°C° 0.4 mm 2 mps 593 mmHg 94%
    21:00 +15°C° 0.4 mm 2 mps 593 mmHg 94%
    22:00 +15°C° 0.4 mm 2 mps 593 mmHg 93%
    23:00 +15°C° 0.1 mm 2 mps 593 mmHg 92%

    29 June, Saturday

    Time Temperature Precipitation Wind Pressure Humidity
    00:00 +15°C° 0.1 mm 2 mps 593 mmHg 91%
    01:00 +13°C° 0.1 mm 3 mps 592 mmHg 90%
    02:00 +13°C° 0 mm 3 mps 592 mmHg 90%
    03:00 +13°C° 0 mm 3 mps 592 mmHg 90%
    04:00 +13°C° 0 mm 3 mps 592 mmHg 90%
    05:00 +15°C° 0.2 mm 2 mps 592 mmHg 89%
    06:00 +15°C° 0.2 mm 2 mps 593 mmHg 89%
    07:00 +16°C° 0.2 mm 2 mps 594 mmHg 88%
    08:00 +17°C° 0.9 mm 2 mps 594 mmHg 87%
    09:00 +17°C° 0.9 mm 2 mps 595 mmHg 86%
    10:00 +18°C° 0.9 mm 2 mps 595 mmHg 85%
    11:00 +18°C° 1.2 mm 2 mps 595 mmHg 85%
    12:00 +18°C° 1.2 mm 2 mps 594 mmHg 85%
    13:00 +18°C° 1.2 mm 2 mps 594 mmHg 85%
    14:00 +18°C° 0.4 mm 2 mps 594 mmHg 80%
    15:00 +19°C° 0.4 mm 2 mps 594 mmHg 76%
    16:00 +20°C° 0.4 mm 2 mps 593 mmHg 71%
    17:00 +18°C° 0.3 mm 2 mps 593 mmHg 77%
    18:00 +17°C° 0.3 mm 2 mps 592 mmHg 84%
    19:00 +15°C° 0.3 mm 2 mps 592 mmHg 91%
    20:00 +15°C° 0.1 mm 2 mps 592 mmHg 89%
    21:00 +14°C° 0.1 mm 2 mps 593 mmHg 88%
    22:00 +14°C° 0.1 mm 2 mps 593 mmHg 86%
    23:00 +14°C° 0 mm 2 mps 593 mmHg 85%

    30 June, Sunday

    Time Temperature Precipitation Wind Pressure Humidity
    00:00 +14°C° 0 mm 2 mps 592 mmHg 85%
    01:00 +14°C° 0 mm 2 mps 592 mmHg 85%
    02:00 +14°C° 0 mm 2 mps 592 mmHg 85%
    03:00 +14°C° 0 mm 2 mps 592 mmHg 85%
    04:00 +15°C° 0 mm 2 mps 592 mmHg 85%
    05:00 +15°C° 0 mm 2 mps 593 mmHg 83%
    06:00 +16°C° 0 mm 2 mps 594 mmHg 81%
    07:00 +17°C° 0 mm 2 mps 594 mmHg 79%
    08:00 +18°C° 0.1 mm 2 mps 595 mmHg 77%
    09:00 +19°C° 0.1 mm 2 mps 596 mmHg 75%
    10:00 +20°C° 0.1 mm 2 mps 596 mmHg 72%
    11:00 +20°C° 0.5 mm 2 mps 596 mmHg 73%
    12:00 +20°C° 0.5 mm 2 mps 595 mmHg 74%
    13:00 +21°C° 0.5 mm 2 mps 595 mmHg 75%
    14:00 +20°C° 0.5 mm 2 mps 594 mmHg 78%
    15:00 +20°C° 0.5 mm 2 mps 593 mmHg 80%
    16:00 +20°C° 0.5 mm 1 mps 593 mmHg 83%
    17:00 +19°C° 0.3 mm 1 mps 592 mmHg 86%
    18:00 +17°C° 0.3 mm 2 mps 592 mmHg 89%
    19:00 +15°C° 0.3 mm 2 mps 592 mmHg 92%
    20:00 +15°C° 0.1 mm 2 mps 592 mmHg 91%
    21:00 +15°C° 0.1 mm 2 mps 592 mmHg 89%
    22:00 +14°C° 0.1 mm 2 mps 593 mmHg 88%
    23:00 +15°C° 0.3 mm 2 mps 593 mmHg 89%

    1 July, Monday

    Time Temperature Precipitation Wind Pressure Humidity
    00:00 +15°C° 0.3 mm 2 mps 593 mmHg 90%
    01:00 +15°C° 0.3 mm 2 mps 592 mmHg 91%
    02:00 +15°C° 0.1 mm 2 mps 592 mmHg 91%
    03:00 +15°C° 0.1 mm 1 mps 592 mmHg 92%
    04:00 +15°C° 0.1 mm 1 mps 592 mmHg 92%
    05:00 +15°C° 0.4 mm 1 mps 593 mmHg 91%
    06:00 +16°C° 0.4 mm 1 mps 593 mmHg 90%
    07:00 +16°C° 0.4 mm 1 mps 594 mmHg 89%
    08:00 +16°C° 2.2 mm 1 mps 594 mmHg 91%
    09:00 +16°C° 2.2 mm 1 mps 595 mmHg 92%
    10:00 +16°C° 2.2 mm 1 mps 595 mmHg 94%
    11:00 +16°C° 4.3 mm 1 mps 595 mmHg 94%
    12:00 +16°C° 4.3 mm 1 mps 595 mmHg 93%
    13:00 +17°C° 4.3 mm 2 mps 594 mmHg 92%
    14:00 +17°C° 0.4 mm 2 mps 594 mmHg 91%
    15:00 +18°C° 0.4 mm 1 mps 594 mmHg 90%
    16:00 +18°C° 0.4 mm 1 mps 594 mmHg 89%
    17:00 +16°C° 0.2 mm 2 mps 594 mmHg 90%
    18:00 +16°C° 0.2 mm 2 mps 594 mmHg 91%
    19:00 +15°C° 0.2 mm 2 mps 593 mmHg 92%
    20:00 +15°C° 0.1 mm 2 mps 594 mmHg 92%
    21:00 +15°C° 0.1 mm 2 mps 594 mmHg 92%
    22:00 +16°C° 0.1 mm 2 mps 594 mmHg 91%
    23:00 +15°C° 0 mm 2 mps 593 mmHg 92%
    Show more